Location: Julian California
(33.0790°N, 116.6010°W)
Time: 06:39:36
(UTC-07:00)

Helios 1A - Pass Details

Date: 14 June 2018
Orbit: 585 x 604 km, 98.2° (Epoch: 11 June)

Event Time Altitude Azimuth Distance (km) Brightness Sun altitude
Exits shadow 22:52:25 39° 281° (W) 891 4.1 -27.4°
Drops below altitude 10° 22:55:50 10° 332° (NNW) 1,920 6.6 -27.7°
Sets 22:58:06 0° 339° (NNW) 2,828 7.7 -27.9°
